DW3800 Weather Reports


time (UTC)temp
C
wind
direction
speed
KPH
gust
KPH
rain 1hr
cm
rain 24hr
cm
rain mn
cm
humidity
%
barometer
mb
20260831024618 24 92 1.6 8.0 0.00 0.00 0.00 84 1012.3
20260831024116 24 70 1.6 4.8 0.00 0.00 0.00 84 1012.5
20260831023615 24 63 3.2 4.8 0.00 0.00 0.00 84 1012.4
20260831023114 24 143 4.8 11.3 0.00 0.00 0.00 83 1012.5
20260831022609 24 78 0.0 8.0 0.00 0.00 0.00 83 1012.4
20260831022104 24 153 6.4 11.3 0.00 0.00 0.00 83 1012.5
20260831021603 25 133 4.8 8.0 0.00 0.00 0.00 82 1012.4
20260831021059 25 120 1.6 11.3 0.00 0.00 0.00 82 1012.4
20260831020554 25 158 0.0 4.8 0.00 0.00 0.00 81 1012.5
20260831020049 25 137 3.2 9.7 0.00 0.00 0.00 80 1012.5
20260831015545 25 171 3.2 9.7 0.00 0.00 0.00 79 1012.6
20260831015039 25 104 3.2 9.7 0.00 0.00 0.00 79 1012.7
20260831014534 25 169 6.4 11.3 0.00 0.00 0.00 78 1012.5
20260831014030 25 99 0.0 8.0 0.00 0.00 0.00 78 1012.2
20260831013525 26 137 3.2 11.3 0.00 0.00 0.00 76 1012.5
20260831013020 26 110 1.6 8.0 0.00 0.00 0.00 75 1012.2
20260831012514 26 114 3.2 12.9 0.00 0.00 0.00 74 1012.2
20260831012015 26 108 1.6 8.0 0.00 0.00 0.00 74 1011.8
20260831011509 26 116 4.8 4.8 0.00 0.00 0.00 74 1012.2
20260831011005 26 107 4.8 16.1 0.00 0.00 0.00 73 1012.2
20260831010504 27 92 8.0 14.5 0.00 0.00 0.00 73 1012.1
20260831010001 27 136 0.0 11.3 0.00 0.00 0.00 74 1012.0
20260831005456 27 102 1.6 3.2 0.00 0.00 0.00 73 1012.0
20260831004955 27 112 3.2 3.2 0.00 0.00 0.00 73 1011.8
20260831004452 27 128 3.2 8.0 0.00 0.00 0.00 72 1011.7
20260831003948 27 148 1.6 9.7 0.00 0.00 0.00 72 1011.8
20260831003444 27 126 0.0 3.2 0.00 0.00 0.00 72 1011.7
20260831002943 27 124 0.0 3.2 0.00 0.00 0.00 72 1011.6
20260831002442 28 113 1.6 8.0 0.00 0.00 0.00 72 1011.5
20260831001938 28 87 0.0 3.2 0.00 0.00 0.00 72 1011.3
20260831001433 28 114 4.8 4.8 0.00 0.00 0.00 71 1011.3
20260831000930 28 118 1.6 12.9 0.00 0.00 0.00 71 1011.4
20260831000426 28 112 3.2 11.3 0.00 0.00 0.00 71 1011.4
20260830235923 28 134 1.6 9.7 0.00 0.00 0.00 71 1011.2
20260830235419 28 104 1.6 3.2 0.00 0.00 0.00 71 1011.4
20260830234914 28 116 1.6 4.8 0.00 0.00 0.00 71 1011.6
20260830234409 28 148 3.2 4.8 0.00 0.00 0.00 72 1011.4
20260830233905 29 105 4.8 8.0 0.00 0.00 0.00 72 1011.4
20260830233400 29 147 3.2 11.3 0.00 0.00 0.00 72 1011.5
20260830232855 28 107 3.2 9.7 0.00 0.00 0.00 74 1011.3
20260830232351 28 180 6.4 9.7 0.00 0.00 0.00 77 1011.4
20260830231848 28 109 0.0 8.0 0.00 0.00 0.00 77 1011.4
20260830231343 28 108 0.0 9.7 0.00 0.00 0.00 77 1011.3
20260830230842 29 342 6.4 9.7 0.00 0.00 0.00 75 1011.5
20260830230337 29 205 3.2 8.0 0.00 0.00 0.00 75 1011.6
20260830225831 29 100 6.4 12.9 0.00 0.00 0.00 76 1011.5
20260830225326 28 327 0.0 1.6 0.00 0.00 0.00 76 1011.4
20260830224821 28 114 1.6 8.0 0.00 0.00 0.00 76 1011.4
20260830224315 28 303 1.6 4.8 0.00 0.00 0.00 77 1011.2
20260830223812 29 248 0.0 4.8 0.00 0.00 0.00 75 1011.1
20260830223308 29 30 3.2 9.7 0.00 0.00 0.00 76 1011.2
20260830222802 29 41 1.6 1.6 0.00 0.00 0.00 74 1011.1
20260830222257 28 171 0.0 8.0 0.00 0.00 0.00 76 1011.2
20260830221752 28 6 6.4 8.0 0.00 0.00 0.00 76 1011.1
20260830221249 28 103 6.4 11.3 0.00 0.00 0.00 77 1011.0
20260830220743 28 63 0.0 9.7 0.00 0.00 0.00 77 1011.2
20260830220243 28 6 6.4 12.9 0.00 0.00 0.00 76 1011.3
20260830215741 28 118 1.6 8.0 0.00 0.00 0.00 76 1011.2
20260830215236 28 34 8.0 9.7 0.00 0.00 0.00 74 1011.3
20260830214731 28 92 1.6 4.8 0.00 0.00 0.00 76 1011.0
20260830214226 28 160 3.2 4.8 0.00 0.00 0.00 76 1011.2
20260830213725 28 90 4.8 8.0 0.00 0.00 0.00 74 1011.4
20260830213220 30 158 1.6 3.2 0.00 0.00 0.00 73 1011.4
20260830212716 30 113 1.6 4.8 0.00 0.00 0.00 72 1011.6
20260830212211 29 51 4.8 8.0 0.00 0.00 0.00 73 1011.7
20260830211706 29 355 4.8 9.7 0.00 0.00 0.00 73 1011.6
20260830211205 28 172 0.0 12.9 0.00 0.00 0.00 74 1011.7
20260830210701 28 136 1.6 11.3 0.00 0.00 0.00 73 1011.6
20260830210200 29 184 1.6 9.7 0.00 0.00 0.00 72 1011.6
20260830205657 28 139 1.6 9.7 0.00 0.00 0.00 73 1011.7
20260830205152 28 161 1.6 3.2 0.00 0.00 0.00 75 1011.7
20260830204647 28 102 4.8 8.0 0.00 0.00 0.00 75 1011.8
20260830204145 28 109 3.2 8.0 0.00 0.00 0.00 74 1012.1
20260830203642 29 7 1.6 4.8 0.00 0.00 0.00 72 1012.0
20260830203137 28 103 3.2 4.8 0.00 0.00 0.00 73 1012.0
20260830202636 28 129 3.2 9.7 0.00 0.00 0.00 73 1012.1
20260830202132 29 132 4.8 11.3 0.00 0.00 0.00 73 1011.8
20260830201631 28 257 3.2 8.0 0.00 0.00 0.00 74 1012.0
20260830201127 28 214 3.2 17.7 0.00 0.00 0.00 77 1011.8
20260830200622 28 143 6.4 9.7 0.00 0.00 0.00 74 1011.8
20260830200121 28 319 1.6 8.0 0.00 0.00 0.00 74 1011.8
20260830195617 28 30 3.2 11.3 0.00 0.00 0.00 74 1011.7
20260830195114 28 31 4.8 14.5 0.00 0.00 0.00 74 1012.0
20260830194609 28 318 6.4 12.9 0.00 0.00 0.00 74 1012.0
20260830194108 28 153 1.6 14.5 0.00 0.00 0.00 74 1011.5
20260830193603 28 111 3.2 12.9 0.00 0.00 0.00 75 1011.8
20260830193058 28 110 3.2 11.3 0.00 0.00 0.00 75 1011.8
20260830192553 27 124 8.0 11.3 0.00 0.00 0.00 75 1011.8
20260830192053 28 109 1.6 11.3 0.00 0.00 0.00 76 1012.1
20260830191548 28 127 1.6 8.0 0.00 0.00 0.00 75 1012.2
20260830191038 27 143 1.6 3.2 0.00 0.00 0.00 77 1012.0
20260830190533 27 44 12.9 17.7 0.00 0.00 0.00 77 1012.3
20260830190028 27 176 0.0 8.0 0.00 0.00 0.00 78 1012.2
20260830185522 27 51 9.7 12.9 0.00 0.00 0.00 78 1012.5
20260830185018 26 129 3.2 8.0 0.00 0.00 0.00 80 1012.6
20260830184516 26 68 0.0 9.7 0.00 0.00 0.00 81 1012.7
20260830184005 26 153 4.8 20.9 0.00 0.00 0.00 81 1012.7
20260830183500 26 28 4.8 17.7 0.00 0.00 0.00 81 1012.7
20260830182955 26 104 8.0 12.9 0.00 0.00 0.00 81 1012.7
20260830182450 26 205 1.6 8.0 0.00 0.00 0.00 82 1012.8
20260830181946 26 115 4.8 12.9 0.00 0.00 0.00 82 1012.7
20260830181443 25 353 0.0 11.3 0.00 0.00 0.00 83 1012.9
20260830180937 25 104 4.8 14.5 0.00 0.00 0.00 83 1013.0
20260830180436 25 92 1.6 8.0 0.00 0.00 0.00 83 1013.0
20260830175935 25 117 3.2 12.9 0.00 0.00 0.00 83 1013.1
20260830175434 25 214 4.8 9.7 0.00 0.00 0.00 83 1013.1
20260830174925 25 155 4.8 4.8 0.00 0.00 0.00 83 1013.1
20260830174420 25 157 3.2 9.7 0.00 0.00 0.00 83 1013.3
20260830173915 25 101 12.9 14.5 0.00 0.00 0.00 83 1013.5
20260830173411 25 30 1.6 4.8 0.00 0.00 0.00 84 1013.5
20260830172906 25 158 3.2 8.0 0.00 0.00 0.00 84 1013.4
20260830172403 25 163 0.0 4.8 0.00 0.00 0.00 84 1013.4
20260830171858 25 135 3.2 8.0 0.00 0.00 0.00 84 1013.3
20260830171354 25 31 1.6 8.0 0.00 0.00 0.00 84 1013.1
20260830170848 25 252 1.6 3.2 0.00 0.00 0.00 84 1013.2
20260830170348 25 259 4.8 8.0 0.00 0.00 0.00 84 1013.1
20260830165846 25 101 1.6 11.3 0.00 0.00 0.00 85 1013.3
20260830165343 25 92 3.2 8.0 0.00 0.00 0.00 85 1013.3
20260830164839 25 1 0.0 8.0 0.00 0.00 0.00 85 1013.1
20260830164334 24 112 0.0 12.9 0.00 0.00 0.00 85 1013.2
20260830163831 24 262 4.8 8.0 0.00 0.00 0.00 85 1012.9
20260830163326 25 61 3.2 8.0 0.00 0.00 0.00 85 1012.8
20260830162821 25 335 3.2 9.7 0.00 0.00 0.00 84 1012.7
20260830162317 25 346 3.2 8.0 0.00 0.00 0.00 84 1012.7
20260830161812 25 134 0.0 12.9 0.00 0.00 0.00 85 1012.6
20260830161311 25 25 0.0 16.1 0.00 0.00 0.00 84 1012.7
20260830160806 24 304 0.0 3.2 0.00 0.00 0.00 86 1012.9
20260830160301 24 341 3.2 9.7 0.00 0.00 0.00 85 1012.7
20260830155757 24 12 1.6 11.3 0.00 0.00 0.00 85 1012.6
20260830155253 24 336 1.6 9.7 0.00 0.00 0.00 86 1012.6
20260830154753 24 82 3.2 9.7 0.00 0.00 0.00 86 1012.4
20260830154249 24 129 4.8 8.0 0.00 0.00 0.00 86 1012.6
20260830153746 24 315 6.4 11.3 0.00 0.00 0.00 85 1012.4
20260830153241 24 326 4.8 8.0 0.00 0.00 0.00 85 1012.4
20260830152739 24 228 1.6 4.8 0.00 0.00 0.00 85 1012.6
20260830152234 23 110 0.0 9.7 0.00 0.00 0.00 86 1012.6
20260830151733 23 116 3.2 3.2 0.00 0.00 0.00 87 1012.4
20260830151233 23 46 0.0 1.6 0.00 0.00 0.00 88 1012.1
20260830150728 23 68 0.0 3.2 0.00 0.00 0.00 88 1012.6
20260830150228 22 126 4.8 9.7 0.00 0.00 0.00 89 1012.4
20260830145723 22 333 3.2 4.8 0.00 0.00 0.00 89 1012.2
20260830145218 23 2 1.6 9.7 0.00 0.00 0.00 88 1012.3
20260830144713 22 50 3.2 4.8 0.00 0.00 0.00 89 1012.6
20260830144209 22 128 0.0 4.8 0.00 0.00 0.00 90 1012.5
20260830143705 22 147 0.0 3.2 0.00 0.00 0.00 91 1012.7
20260830143202 22 152 0.0 8.0 0.00 0.00 0.00 90 1012.3
20260830142658 22 339 3.2 4.8 0.00 0.00 0.00 90 1012.3
20260830142153 22 76 4.8 8.0 0.00 0.00 0.00 89 1012.7
20260830141648 22 127 0.0 4.8 0.00 0.00 0.00 89 1012.8
20260830141143 22 63 0.0 3.2 0.00 0.00 0.00 89 1013.0
20260830140638 21 55 0.0 8.0 0.00 0.00 0.00 91 1012.8
20260830140139 21 111 1.6 4.8 0.00 0.00 0.00 92 1012.8
20260830135634 21 92 0.0 3.2 0.00 0.00 0.00 94 1012.8
20260830135128 20 120 0.0 1.6 0.00 0.00 0.00 94 1012.9
20260830134625 20 333 4.8 8.0 0.00 0.00 0.00 95 1012.7
20260830134120 20 141 0.0 1.6 0.00 0.00 0.00 95 1012.7
20260830133615 20 259 1.6 8.0 0.00 0.00 0.00 96 1012.5
20260830133110 20 353 0.0 4.8 0.00 0.00 0.00 96 1012.4
20260830132607 20 43 3.2 3.2 0.00 0.00 0.00 97 1012.6
20260830132102 20 126 0.0 1.6 0.00 0.00 0.00 97 1012.6
20260830131601 19 58 1.6 8.0 0.00 0.00 0.00 98 1012.6
20260830131055 19 152 0.0 1.6 0.00 0.00 0.00 98 1012.9
20260830130550 19 114 1.6 4.8 0.00 0.00 0.00 98 1012.8
20260830130046 19 90 0.0 3.2 0.00 0.00 0.00 98 1012.8
20260830125540 19 59 1.6 8.0 0.00 0.00 0.00 98 1012.7
20260830125039 19 111 0.0 0.0 0.00 0.00 0.00 99 1013.1
20260830124538 19 258 1.6 9.7 0.00 0.00 0.00 99 1013.0
20260830124034 19 108 0.0 3.2 0.00 0.00 0.00 99 1012.8
20260830123531 19 137 1.6 3.2 0.00 0.00 0.00 99 1012.7
20260830123026 19 121 0.0 0.0 0.00 0.00 0.00 99 1012.4
20260830122522 18 82 0.0 0.0 0.00 0.00 0.00 99 1012.5
20260830122018 18 110 0.0 1.6 0.00 0.00 0.00 99 1012.7
20260830121514 18 103 0.0 3.2 0.00 0.00 0.00 99 1012.5
20260830121013 18 90 0.0 0.0 0.00 0.00 0.00 99 1012.5
20260830120509 18 35 0.0 3.2 0.00 0.00 0.00 99 1012.2
20260830120006 18 112 0.0 3.2 0.00 0.00 0.00 99 1012.4
20260830115501 18 23 0.0 4.8 0.00 0.00 0.00 99 1012.1
20260830114956 18 19 1.6 4.8 0.00 0.00 0.00 99 1012.1
20260830114453 18 99 0.0 0.0 0.00 0.00 0.00 99 1012.2
20260830113952 18 70 1.6 3.2 0.00 0.00 0.00 99 1012.2
20260830113447 18 22 0.0 0.0 0.00 0.00 0.00 99 1012.2
20260830112943 18 90 0.0 1.6 0.00 0.00 0.00 99 1012.4
20260830112439 18 104 0.0 0.0 0.00 0.00 0.00 99 1012.4
20260830111935 18 135 0.0 1.6 0.00 0.00 0.00 99 1012.2
20260830111430 18 50 1.6 4.8 0.00 0.00 0.00 99 1012.1
20260830110926 18 76 0.0 0.0 0.00 0.00 0.00 99 1012.4
20260830110421 18 87 0.0 1.6 0.00 0.00 0.00 98 1012.6
20260830105920 18 101 0.0 0.0 0.00 0.00 0.00 98 1012.6
20260830105417 18 84 0.0 0.0 0.00 0.00 0.00 98 1012.6
20260830104913 18 80 0.0 1.6 0.00 0.00 0.00 98 1012.6
20260830104409 18 0 0.0 1.6 0.00 0.00 0.00 98 1012.3
20260830103908 18 75 0.0 0.0 0.00 0.00 0.00 98 1012.5
20260830103404 18 78 0.0 1.6 0.00 0.00 0.00 98 1012.8
20260830102902 18 91 0.0 3.2 0.00 0.00 0.00 98 1012.7
20260830102358 18 106 0.0 0.0 0.00 0.00 0.00 98 1012.6
20260830101854 18 104 0.0 3.2 0.00 0.00 0.00 98 1012.5
20260830101349 18 52 0.0 0.0 0.00 0.00 0.00 98 1012.5
20260830100848 18 79 0.0 1.6 0.00 0.00 0.00 98 1012.3
20260830100348 18 105 0.0 0.0 0.00 0.00 0.00 98 1012.2
20260830095847 18 32 1.6 3.2 0.00 0.00 0.00 98 1012.2
20260830095343 18 109 0.0 1.6 0.00 0.00 0.00 98 1011.8
20260830094838 19 99 0.0 4.8 0.00 0.00 0.00 97 1012.1
20260830094335 19 93 0.0 0.0 0.00 0.00 0.00 97 1012.0
20260830093830 19 100 0.0 0.0 0.00 0.00 0.00 97 1012.2
20260830093325 19 111 0.0 1.6 0.00 0.00 0.00 97 1012.2
20260830092820 19 97 0.0 3.2 0.00 0.00 0.00 97 1012.5
20260830092316 19 97 0.0 3.2 0.00 0.00 0.00 97 1012.6
20260830091813 19 66 0.0 3.2 0.00 0.00 0.00 97 1012.7
20260830091312 19 79 0.0 1.6 0.00 0.00 0.00 97 1012.2
20260830090811 19 78 0.0 3.2 0.00 0.00 0.00 97 1012.3
20260830090307 19 64 0.0 3.2 0.00 0.00 0.00 97 1012.2
20260830085806 19 102 0.0 1.6 0.00 0.00 0.00 96 1012.4
20260830085302 19 90 0.0 1.6 0.00 0.00 0.00 96 1012.5
20260830084757 19 74 0.0 0.0 0.00 0.00 0.00 96 1012.5
20260830084253 19 102 0.0 0.0 0.00 0.00 0.00 96 1012.5
20260830083747 19 102 0.0 1.6 0.00 0.00 0.00 96 1012.7
20260830083244 19 62 0.0 1.6 0.00 0.00 0.00 96 1012.6
20260830082743 19 36 1.6 4.8 0.00 0.00 0.00 96 1012.2
20260830082238 20 90 0.0 3.2 0.00 0.00 0.00 96 1012.3
20260830081733 20 87 0.0 1.6 0.00 0.00 0.00 95 1012.2
20260830081228 20 53 0.0 3.2 0.00 0.00 0.00 95 1012.5
20260830080722 20 347 0.0 1.6 0.00 0.00 0.00 95 1012.6
20260830080218 20 102 0.0 1.6 0.00 0.00 0.00 95 1012.8
20260830075717 20 85 0.0 8.0 0.00 0.00 0.00 95 1012.9
20260830075213 20 89 0.0 0.0 0.00 0.00 0.00 95 1012.8
20260830074708 20 7 0.0 3.2 0.00 0.00 0.00 95 1013.0
20260830074204 20 139 0.0 3.2 0.00 0.00 0.00 95 1012.6
20260830073700 20 95 0.0 3.2 0.00 0.00 0.00 95 1012.6
20260830073156 20 103 0.0 0.0 0.00 0.00 0.00 95 1012.8
20260830072650 20 106 0.0 3.2 0.00 0.00 0.00 95 1012.9
20260830072150 20 63 0.0 0.0 0.00 0.00 0.00 95 1013.0
20260830071646 20 94 0.0 0.0 0.00 0.00 0.00 95 1012.8
20260830071144 20 100 0.0 1.6 0.00 0.00 0.00 94 1012.9
20260830070639 20 29 0.0 3.2 0.00 0.00 0.00 94 1012.7
20260830070133 20 99 0.0 4.8 0.00 0.00 0.00 94 1012.8
20260830065632 20 102 0.0 3.2 0.00 0.00 0.00 94 1012.7
20260830065131 20 47 0.0 0.0 0.00 0.00 0.00 94 1012.9
20260830064625 20 119 0.0 0.0 0.00 0.00 0.00 93 1013.0
20260830064120 20 9 1.6 1.6 0.00 0.00 0.00 93 1013.0
20260830063614 20 97 0.0 4.8 0.00 0.00 0.00 93 1012.9
20260830063114 20 72 0.0 1.6 0.00 0.00 0.00 93 1012.9
20260830062609 20 68 0.0 3.2 0.00 0.00 0.00 93 1013.3
20260830062103 20 96 0.0 1.6 0.00 0.00 0.00 94 1013.2
20260830061557 20 108 0.0 3.2 0.00 0.00 0.00 94 1013.3
20260830061054 20 47 0.0 1.6 0.00 0.00 0.00 94 1013.3
20260830060550 20 91 0.0 0.0 0.00 0.00 0.00 94 1013.5
20260830060046 20 353 1.6 1.6 0.00 0.00 0.00 94 1013.2
20260830055541 20 92 0.0 0.0 0.00 0.00 0.00 93 1013.3
20260830055037 20 93 0.0 0.0 0.00 0.00 0.00 93 1013.5
20260830054532 20 103 0.0 1.6 0.00 0.00 0.00 93 1013.2
20260830054028 20 39 0.0 0.0 0.00 0.00 0.00 93 1013.4
20260830053524 20 48 1.6 1.6 0.00 0.00 0.00 93 1013.3
20260830053023 20 140 0.0 3.2 0.00 0.00 0.00 93 1013.4
20260830052519 20 98 0.0 3.2 0.00 0.00 0.00 93 1013.4
20260830052018 20 100 1.6 1.6 0.00 0.00 0.00 93 1013.4
20260830051514 20 97 0.0 1.6 0.00 0.00 0.00 93 1013.3
20260830051009 20 46 1.6 3.2 0.00 0.00 0.00 93 1013.5
20260830050503 20 90 1.6 3.2 0.00 0.00 0.00 93 1013.6
20260830050002 20 72 0.0 3.2 0.00 0.84 0.84 93 1013.6
20260830045456 20 44 1.6 8.0 0.00 0.84 0.84 93 1013.6
20260830044956 20 63 3.2 3.2 0.00 0.84 0.84 93 1013.8
20260830044451 20 85 0.0 1.6 0.00 0.84 0.84 93 1013.7
20260830043946 20 81 0.0 0.0 0.00 0.84 0.84 93 1013.7
20260830043441 20 74 1.6 4.8 0.00 0.84 0.84 93 1013.7
20260830042939 20 83 0.0 0.0 0.00 0.84 0.84 93 1013.8
20260830042433 20 79 0.0 0.0 0.00 0.84 0.84 93 1014.0
20260830041932 20 7 0.0 1.6 0.00 0.84 0.84 93 1013.9
20260830041431 20 101 0.0 1.6 0.00 0.84 0.84 93 1013.7
20260830040926 20 96 0.0 3.2 0.00 0.84 0.84 93 1013.8
20260830040423 21 358 1.6 3.2 0.00 0.84 0.84 92 1013.9
20260830035921 21 78 1.6 3.2 0.00 0.84 0.84 92 1013.9
20260830035420 21 87 0.0 1.6 0.00 0.84 0.84 92 1013.8
20260830034916 21 35 0.0 1.6 0.00 0.84 0.84 92 1014.0
20260830034412 21 81 0.0 0.0 0.00 0.84 0.84 92 1014.0
20260830033906 21 77 1.6 3.2 0.00 0.84 0.84 92 1014.2
20260830033401 21 37 1.6 1.6 0.00 0.84 0.84 92 1014.1
20260830032857 21 78 0.0 3.2 0.00 0.84 0.84 92 1014.3
20260830032356 21 73 0.0 3.2 0.00 0.84 0.84 92 1014.0
20260830031851 21 122 1.6 4.8 0.00 0.84 0.84 92 1013.9
20260830031347 21 32 0.0 4.8 0.00 0.84 0.84 91 1014.1
20260830030842 21 81 3.2 3.2 0.00 0.84 0.84 91 1013.9
20260830030337 21 75 1.6 3.2 0.00 0.84 0.84 91 1014.2
20260830025836 21 86 0.0 3.2 0.00 0.84 0.84 91 1014.0
20260830025331 21 102 1.6 3.2 0.00 0.84 0.84 91 1013.7